Regional Weather Roundup
Issued by NWS

Home | Current Version | Previous Version | Graphics & Text | Print | Product List | Glossary On
Versions: 1 2 3 4 5 6 7 8 9 10 11 12 13 14 15 16 17 18 19 20 21 22 23 24 25 26 27 28 29 30 31 32 33 34 35 36 37 38 39 40 41 42 43 44 45 46 47 48 49 50
000
ASUS43 KOAX 061110
RWRNE

WEATHER ROUNDUP FOR NEBRASKA
NATIONAL WEATHER SERVICE OMAHA NE
500 AM CST TUE DEC 06 2016

NOTES: SATELLITE DATA IS BEING USED TO AUGMENT CLOUD COVER ABOVE
       12000 FEET.
       "FAIR" INDICATES FEW OR NO CLOUDS BELOW 12,000 FEET WITH NO
       SIGNIFICANT WEATHER AND/OR OBSTRUCTIONS TO VISIBILITY.

  * THESE STATIONS DO NOT REPORT WEATHER SUCH AS RAIN...SNOW OR FOG.

NEZ001>004-019>022-054>056-061200-
NEBRASKA PANHANDLE

CITY           SKY/WX    TMP DP  RH WIND       PRES   REMARKS
SCOTTSBLUFF    CLEAR      6   0  76 NW6       29.98S WCI  -4
ALLIANCE       CLEAR      2  -3  80 SW12      29.95S WCI -15
CHADRON        CLEAR      9   2  73 SW6       30.00S WCI  -1
KIMBALL        CLEAR      5   2  88 NW8       29.94F WCI  -9
SIDNEY         CLEAR     11   3  70 NW14      29.96F WCI  -5
$$

NEZ057>060-069>072-079>082-061200-
SOUTHWEST NEBRASKA

CITY           SKY/WX    TMP DP  RH WIND       PRES   REMARKS
NORTH PLATTE   CLEAR     17   8  67 W9        29.99F WCI   6
IMPERIAL       CLEAR     17   4  56 NW15      30.01R WCI   2
LEXINGTON      CLEAR     21  13  71 NW12      30.00S WCI   9
MCCOOK         PTCLDY    18  10  71 NW9       30.03R WCI   7
OGALLALA       CLEAR     17   7  65 W8        30.00S WCI   6
$$

NEZ005>010-023>029-035>040-094-061200-
NORTH CENTRAL NEBRASKA

CITY           SKY/WX    TMP DP  RH WIND       PRES   REMARKS
VALENTINE      CLEAR     14   4  64 W12       29.96S WCI   0
AINSWORTH      CLEAR     18   8  64 W17G23    29.94S WCI   3
BROKEN BOW     CLEAR     16  12  84 CALM      29.96F
O`NEILL        CLEAR     19   9  63 W23       29.93R WCI   2
ORD            CLEAR     19  10  68 W10       29.95F WCI   7
THEDFORD       CLEAR     13   9  83 W7        29.96S WCI   3
$$

NEZ041-046>049-061>064-073>077-083>087-061200-
SOUTH CENTRAL NEBRASKA

CITY           SKY/WX    TMP DP  RH WIND       PRES   REMARKS
GRAND ISLAND   PTCLDY    20  12  71 NW13      30.00R WCI   7
AURORA         PTCLDY    21  12  68 NW9       29.99R WCI  11
HASTINGS       CLEAR     20  13  74 NW8       30.00R WCI  10
HEBRON         CLEAR     26  16  66 N9        30.01R WCI  16
HOLDREGE       PTCLDY    22  14  71 NW12      30.00R WCI  10
KEARNEY *      PTCLDY    19  10  68 NW5       30.00R WCI  13
YORK           CLEAR     21  14  73 NW9       29.99R WCI  11
$$

NEZ011>018-030>034-042>045-061200-
NORTHEAST NEBRASKA

CITY           SKY/WX    TMP DP  RH WIND       PRES   REMARKS
NORFOLK        CLEAR     19   8  62 NW15      29.93S WCI   5
ALBION         CLEAR     20   9  62 NW13G21   29.95R WCI   8
BLAIR          CLEAR     26  17  70 NW9       29.93R WCI  17
FREMONT        CLEAR     23  14  69 NW13G18   29.97R WCI  11
TEKAMAH        CLEAR     24  15  68 W12       29.97R WCI  13
WAYNE          CLEAR     19  10  69 NW14      29.93S WCI   5
$$

NEZ050>053-065>068-078-088>093-061200-
SOUTHEAST NEBRASKA

CITY           SKY/WX    TMP DP  RH WIND       PRES   REMARKS
LINCOLN        CLEAR     27  12  53 NW14      29.99R WCI  16
OMAHA EPPLEY   CLEAR     27  16  63 NW14      29.95R WCI  16
BEATRICE       PTCLDY    28  15  58 N14G23    29.98R WCI  17
FALLS CITY     CLOUDY    31  20  63 NW15G26   29.94R WCI  20
NEBRASKA CITY  MOCLDY    30  16  57 NW15      29.95R WCI  19
PLATTSMOUTH    MOCLDY    28  17  61 NW14      29.94R WCI  17
$$

NEZ044-045-051>053-067-061200-
OMAHA AREA

CITY           SKY/WX    TMP DP  RH WIND       PRES   REMARKS
OMAHA EPPLEY   CLEAR     27  16  63 NW14      29.95R WCI  16
BLAIR          CLEAR     26  17  70 NW9       29.93R WCI  17
FREMONT        CLEAR     23  14  69 NW13G18   29.97R WCI  11
MILLARD        CLEAR     28  14  55 NW20G29   29.96R WCI  15
OFFUTT AFB     PTCLDY    28  17  64 NW12      29.95R WCI  18
PLATTSMOUTH    MOCLDY    28  17  61 NW14      29.94R WCI  17
WAHOO          FAIR      25  14  62 NW17G23   29.97R WCI  12
$$




USA.gov is the U.S. government's official web portal to all federal, state and local government web resources and services.